• In Romania
  • List of Countries
  • For 7 days
  • Water Temperature
  • Satellite Maps
  • Weather Map
  • Weather Widgets
  • user-avatar
    Login

    Hourly Weather Dumfries

    Today, 16 August, Thursday

    Time Temperature Precipitation Wind Pressure Humidity
    00:00 +13°C° 0 mm 4 mps 750 mmHg 93%
    01:00 +12°C° 0 mm 3 mps 750 mmHg 94%
    02:00 +12°C° 0 mm 3 mps 750 mmHg 94%
    03:00 +11°C° 0 mm 3 mps 750 mmHg 94%
    04:00 +11°C° 0 mm 3 mps 750 mmHg 94%
    05:00 +11°C° 0 mm 3 mps 750 mmHg 94%
    06:00 +11°C° 0 mm 3 mps 750 mmHg 93%
    07:00 +11°C° 0.1 mm 4 mps 750 mmHg 90%
    08:00 +12°C° 0.1 mm 5 mps 750 mmHg 88%
    09:00 +13°C° 0.1 mm 5 mps 750 mmHg 85%
    10:00 +13°C° 0.3 mm 5 mps 750 mmHg 83%
    11:00 +14°C° 0.3 mm 6 mps 751 mmHg 82%
    12:00 +14°C° 0.3 mm 6 mps 751 mmHg 81%
    13:00 +15°C° 0.3 mm 6 mps 751 mmHg 79%
    14:00 +15°C° 0.3 mm 6 mps 751 mmHg 77%
    15:00 +16°C° 0.3 mm 6 mps 751 mmHg 75%
    16:00 +15°C° 0.1 mm 6 mps 752 mmHg 77%
    17:00 +15°C° 0.1 mm 5 mps 752 mmHg 79%
    18:00 +14°C° 0.1 mm 5 mps 752 mmHg 80%
    19:00 +13°C° 0 mm 5 mps 753 mmHg 84%
    20:00 +12°C° 0 mm 4 mps 753 mmHg 88%
    21:00 +11°C° 0 mm 4 mps 754 mmHg 92%
    22:00 +11°C° 0 mm 4 mps 754 mmHg 93%
    23:00 +11°C° 0 mm 4 mps 754 mmHg 93%

    Tomorrow, 17 August, Friday

    Time Temperature Precipitation Wind Pressure Humidity
    00:00 +11°C° 0 mm 4 mps 754 mmHg 93%
    01:00 +11°C° 0.1 mm 4 mps 754 mmHg 93%
    02:00 +11°C° 0.1 mm 4 mps 754 mmHg 93%
    03:00 +10°C° 0.1 mm 5 mps 754 mmHg 93%
    04:00 +12°C° 0.1 mm 5 mps 754 mmHg 92%
    05:00 +12°C° 0.1 mm 4 mps 755 mmHg 92%
    06:00 +12°C° 0.1 mm 4 mps 755 mmHg 92%
    07:00 +12°C° 0.1 mm 4 mps 755 mmHg 89%
    08:00 +13°C° 0.1 mm 5 mps 755 mmHg 87%
    09:00 +14°C° 0.1 mm 5 mps 755 mmHg 84%
    10:00 +14°C° 0.1 mm 5 mps 755 mmHg 85%
    11:00 +13°C° 0.1 mm 5 mps 755 mmHg 86%
    12:00 +13°C° 0.1 mm 6 mps 755 mmHg 87%
    13:00 +14°C° 0.1 mm 6 mps 755 mmHg 87%
    14:00 +14°C° 0.1 mm 6 mps 754 mmHg 87%
    15:00 +15°C° 0.1 mm 6 mps 754 mmHg 87%
    16:00 +15°C° 0.4 mm 6 mps 754 mmHg 89%
    17:00 +15°C° 0.4 mm 6 mps 754 mmHg 91%
    18:00 +15°C° 0.4 mm 5 mps 753 mmHg 93%
    19:00 +15°C° 0.2 mm 5 mps 753 mmHg 93%
    20:00 +15°C° 0.2 mm 5 mps 754 mmHg 94%
    21:00 +15°C° 0.2 mm 5 mps 754 mmHg 95%
    22:00 +15°C° 0.1 mm 5 mps 754 mmHg 94%
    23:00 +14°C° 0.1 mm 5 mps 754 mmHg 92%

    Day after tomorrow, 18 August, Saturday

    Time Temperature Precipitation Wind Pressure Humidity
    00:00 +14°C° 0.1 mm 6 mps 754 mmHg 91%
    01:00 +13°C° 0 mm 5 mps 754 mmHg 91%
    02:00 +13°C° 0 mm 5 mps 755 mmHg 92%
    03:00 +13°C° 0 mm 5 mps 755 mmHg 92%
    04:00 +13°C° 0 mm 5 mps 755 mmHg 92%
    05:00 +13°C° 0 mm 5 mps 755 mmHg 92%
    06:00 +13°C° 0 mm 5 mps 755 mmHg 92%
    07:00 +13°C° 0.1 mm 5 mps 755 mmHg 91%
    08:00 +13°C° 0.1 mm 5 mps 755 mmHg 90%
    09:00 +14°C° 0.1 mm 5 mps 755 mmHg 89%
    10:00 +14°C° 0.1 mm 5 mps 756 mmHg 89%
    11:00 +14°C° 0.1 mm 5 mps 756 mmHg 89%
    12:00 +15°C° 0.1 mm 5 mps 757 mmHg 89%
    13:00 +15°C° 0.2 mm 5 mps 757 mmHg 89%
    14:00 +15°C° 0.2 mm 5 mps 757 mmHg 89%
    15:00 +15°C° 0.2 mm 4 mps 757 mmHg 89%
    16:00 +17°C° 0.1 mm 4 mps 758 mmHg 90%
    17:00 +17°C° 0.1 mm 3 mps 758 mmHg 90%
    18:00 +17°C° 0.1 mm 3 mps 758 mmHg 91%
    19:00 +16°C° 0.2 mm 3 mps 758 mmHg 93%
    20:00 +16°C° 0.2 mm 2 mps 758 mmHg 95%
    21:00 +16°C° 0.2 mm 2 mps 758 mmHg 97%
    22:00 +16°C° 0.3 mm 2 mps 758 mmHg 97%
    23:00 +16°C° 0.3 mm 1 mps 758 mmHg 97%

    19 August, Sunday

    Time Temperature Precipitation Wind Pressure Humidity
    00:00 +16°C° 0.3 mm 1 mps 758 mmHg 97%
    01:00 +16°C° 1.7 mm 2 mps 757 mmHg 98%
    02:00 +17°C° 1.7 mm 2 mps 757 mmHg 98%
    03:00 +17°C° 1.7 mm 2 mps 756 mmHg 98%
    04:00 +17°C° 2.3 mm 2 mps 756 mmHg 98%
    05:00 +17°C° 2.3 mm 2 mps 755 mmHg 98%
    06:00 +16°C° 2.3 mm 2 mps 755 mmHg 97%
    07:00 +16°C° 0.6 mm 2 mps 755 mmHg 97%
    08:00 +16°C° 0.6 mm 2 mps 755 mmHg 97%
    09:00 +16°C° 0.6 mm 1 mps 755 mmHg 97%
    10:00 +18°C° 0.1 mm 1 mps 755 mmHg 94%
    11:00 +19°C° 0.1 mm 1 mps 755 mmHg 92%
    12:00 +20°C° 0.1 mm 1 mps 756 mmHg 90%
    13:00 +19°C° 0 mm 2 mps 756 mmHg 88%
    14:00 +20°C° 0 mm 2 mps 756 mmHg 87%
    15:00 +21°C° 0 mm 3 mps 757 mmHg 85%
    16:00 +21°C° 0 mm 3 mps 757 mmHg 84%
    17:00 +20°C° 0 mm 3 mps 757 mmHg 84%
    18:00 +20°C° 0 mm 3 mps 757 mmHg 83%
    19:00 +19°C° 0 mm 3 mps 757 mmHg 86%
    20:00 +17°C° 0 mm 3 mps 757 mmHg 90%
    21:00 +16°C° 0 mm 2 mps 758 mmHg 93%
    22:00 +16°C° 0.1 mm 2 mps 757 mmHg 93%
    23:00 +16°C° 0.1 mm 2 mps 757 mmHg 93%

    20 August, Monday

    Time Temperature Precipitation Wind Pressure Humidity
    00:00 +16°C° 0.1 mm 2 mps 757 mmHg 93%
    01:00 +16°C° 0.1 mm 3 mps 756 mmHg 94%
    02:00 +17°C° 0.1 mm 4 mps 756 mmHg 94%
    03:00 +17°C° 0.1 mm 4 mps 756 mmHg 95%
    04:00 +17°C° 0.1 mm 4 mps 755 mmHg 95%
    05:00 +17°C° 0.1 mm 4 mps 755 mmHg 95%
    06:00 +16°C° 0.1 mm 5 mps 755 mmHg 95%
    07:00 +16°C° 0.1 mm 5 mps 756 mmHg 94%
    08:00 +16°C° 0.1 mm 5 mps 756 mmHg 93%
    09:00 +16°C° 0.1 mm 5 mps 756 mmHg 93%
    10:00 +16°C° 0.1 mm 5 mps 757 mmHg 92%
    11:00 +17°C° 0.1 mm 5 mps 757 mmHg 91%
    12:00 +17°C° 0.1 mm 5 mps 757 mmHg 90%
    13:00 +17°C° 0 mm 5 mps 757 mmHg 88%
    14:00 +17°C° 0 mm 5 mps 757 mmHg 86%
    15:00 +17°C° 0 mm 5 mps 758 mmHg 85%
    16:00 +16°C° 0 mm 5 mps 758 mmHg 84%
    17:00 +17°C° 0 mm 4 mps 758 mmHg 83%
    18:00 +17°C° 0 mm 4 mps 758 mmHg 82%
    19:00 +14°C° 0 mm 3 mps 759 mmHg 86%
    20:00 +13°C° 0 mm 3 mps 759 mmHg 90%
    21:00 +13°C° 0 mm 2 mps 759 mmHg 93%
    22:00 +12°C° 0 mm 2 mps 760 mmHg 94%
    23:00 +12°C° 0 mm 1 mps 760 mmHg 94%

    21 August, Tuesday

    Time Temperature Precipitation Wind Pressure Humidity
    00:00 +12°C° 0 mm 1 mps 760 mmHg 94%
    01:00 +12°C° 0 mm 1 mps 760 mmHg 94%
    02:00 +11°C° 0 mm 1 mps 760 mmHg 95%
    03:00 +11°C° 0 mm 1 mps 760 mmHg 95%
    04:00 +11°C° 0.1 mm 1 mps 760 mmHg 94%
    05:00 +12°C° 0.1 mm 1 mps 760 mmHg 94%
    06:00 +12°C° 0.1 mm 1 mps 760 mmHg 93%
    07:00 +13°C° 0 mm 2 mps 760 mmHg 87%
    08:00 +14°C° 0 mm 2 mps 760 mmHg 81%
    09:00 +14°C° 0 mm 3 mps 760 mmHg 76%
    10:00 +14°C° 0 mm 3 mps 760 mmHg 73%
    11:00 +15°C° 0 mm 4 mps 760 mmHg 71%
    12:00 +15°C° 0 mm 5 mps 760 mmHg 68%
    13:00 +15°C° 0.1 mm 5 mps 760 mmHg 68%
    14:00 +15°C° 0.1 mm 5 mps 760 mmHg 67%
    15:00 +15°C° 0.1 mm 6 mps 760 mmHg 66%
    16:00 +15°C° 0 mm 5 mps 760 mmHg 69%
    17:00 +14°C° 0 mm 5 mps 760 mmHg 72%
    18:00 +14°C° 0 mm 5 mps 760 mmHg 75%
    19:00 +12°C° 0 mm 4 mps 761 mmHg 80%
    20:00 +11°C° 0 mm 4 mps 761 mmHg 86%
    21:00 +10°C° 0 mm 3 mps 762 mmHg 91%
    22:00 +10°C° 0 mm 3 mps 762 mmHg 92%
    23:00 +9°C° 0 mm 3 mps 762 mmHg 94%
    Show more